Find HG-01

NORAD ID: 59069 Int'l Des: 2024-040 Owner: CNSA Country: CN operational
HEOCIRCULARGSOGEO

リアルタイム位置

3D地球を読み込み中...

HG-01について

説明を読み込み中...

次回通過

Passes for default location (London). Set your location on the main map for personalized predictions.

高度履歴

Loading altitude history...

軌道要素

1 59069U 24040A 26121.70563986 .00000161 00000-0 00000+0 0 9992
2 59069 0.0655 325.0661 0004021 64.6732 117.5288 1.00273190 6860
Epoch: May 1, 2026 • Age: 15 hours

現在のステータス

高度 35769.3 km
速度 3.08 km/s
衛星直下点 0.07°N, 33.59°E
打ち上げ日 Feb 29, 2024
運用期間 2.1 years
タイプ other

技術仕様

分類 Payload
質量 4000.00 kg
乾燥質量 2000.00 kg
総質量 4000.00 kg
長さ 3.00 m
直径 2.00 m
スパン 20.00 m
形状 Box + 2 Pan
製造者 CAST
バスタイプ DFH-4
フェーズステータス In Orbit
所有者/国 CNSA/CN

Most Searched